EW0288 Weather Reports


Display with metric or nautical units.
time (UTC)temp
F
wind
direction
speed
MPH
gust
MPH
rain 1hr
in
rain 24hr
in
rain mn
in
humidity
%
barometer
mb
20260506221526 49 336 1.0 4.0 0.02 0.75 0.74 94 1007.1
20260506220120 49 12 2.0 8.0 0.02 0.75 0.74 93 1006.6
20260506214514 51 42 3.0 8.0 0.06 0.75 0.74 92 1006.3
20260506213036 53 68 4.0 11.0 0.18 0.73 0.73 92 1006.1
20260506211510 55 3 4.0 9.0 0.18 0.73 0.72 94 1005.4
20260506210043 56 314 3.0 9.0 0.18 0.73 0.72 93 1005.0
20260506204552 59 12 4.0 14.0 0.16 0.71 0.70 93 1005.1
20260506203100 61 125 1.0 4.0 0.00 0.55 0.54 97 1004.1
20260506203008 61 125 2.0 4.0 0.00 0.55 0.54 97 1004.1
20260506201533 61 133 0.0 3.0 0.00 0.55 0.54 97 1004.2
20260506200112 61 354 0.0 5.0 0.00 0.55 0.54 98 1004.3
20260506194623 61 160 0.0 2.0 0.01 0.55 0.54 98 1004.5
20260506194502 61 160 0.0 2.0 0.01 0.55 0.54 97 1004.5
20260506193028 61 263 1.0 5.0 0.03 0.55 0.54 97 1004.5
20260506191555 61 161 0.0 4.0 0.07 0.55 0.54 98 1004.7
20260506190123 61 270 0.0 4.0 0.09 0.55 0.54 98 1004.6
20260506184524 60 277 0.0 0.0 0.09 0.54 0.53 97 1004.9
20260506183106 60 277 0.0 1.0 0.09 0.52 0.51 97 1005.0
20260506181529 60 329 0.0 2.0 0.11 0.48 0.47 97 1005.0
20260506180100 60 81 0.0 2.0 0.11 0.46 0.45 97 1005.2
20260506174504 60 181 1.0 5.0 0.11 0.44 0.44 98 1005.0
20260506173047 59 158 1.0 3.0 0.11 0.43 0.42 97 1005.1
20260506171600 59 328 0.0 4.0 0.07 0.37 0.36 97 1005.6
20260506170120 58 187 1.0 3.0 0.07 0.35 0.34 97 1005.4
20260506164524 58 26 0.0 3.0 0.07 0.33 0.32 97 1005.8
20260506163052 57 153 0.0 2.0 0.08 0.32 0.31 96 1005.9
20260506161522 57 132 0.0 2.0 0.09 0.30 0.28 96 1005.9
20260506160114 56 136 1.0 2.0 0.09 0.28 0.27 96 1006.2
20260506154518 56 147 0.0 2.0 0.09 0.26 0.25 96 1006.5
20260506153042 56 148 0.0 1.0 0.09 0.23 0.23 95 1006.6
20260506151522 55 147 0.0 0.0 0.11 0.21 0.20 95 1006.7
20260506150044 55 148 0.0 2.0 0.11 0.19 0.18 95 1006.8
20260506144548 55 147 0.0 1.0 0.10 0.17 0.16 95 1007.1
20260506143036 55 148 0.0 1.0 0.08 0.14 0.13 94 1007.4
20260506141552 55 148 0.0 1.0 0.05 0.10 0.09 94 1007.5
20260506140118 55 158 0.0 1.0 0.05 0.08 0.07 94 1007.6
20260506134524 55 158 0.0 2.0 0.04 0.07 0.06 93 1007.5
20260506133054 55 158 0.0 1.0 0.04 0.06 0.05 93 1007.1
20260506131527 55 191 0.0 1.0 0.03 0.04 0.03 93 1007.1
20260506130123 55 268 0.0 0.0 0.02 0.03 0.02 93 1007.1
20260506124552 55 269 1.0 2.0 0.02 0.03 0.02 92 1007.3
20260506123022 55 269 0.0 0.0 0.01 0.02 0.01 92 1007.6
20260506121552 55 268 0.0 0.0 0.00 0.01 0.00 91 1008.2
20260506120114 54 268 0.0 0.0 0.00 0.01 0.00 91 1008.0
20260506114520 54 269 0.0 2.0 0.00 0.01 0.00 91 1008.1
20260506113036 54 209 0.0 0.0 0.00 0.01 0.00 92 1007.5
20260506111510 54 208 1.0 3.0 0.00 0.01 0.00 91 1007.6
20260506110008 54 272 0.0 2.0 0.00 0.01 0.00 91 1007.5
20260506104536 54 272 0.0 2.0 0.00 0.04 0.00 91 1007.3
20260506103003 53 273 0.0 2.0 0.00 0.04 0.00 91 1007.1
20260506101543 53 273 0.0 0.0 0.00 0.04 0.00 90 1007.1
20260506100123 53 273 0.0 0.0 0.00 0.04 0.00 90 1007.0
20260506094519 53 273 0.0 2.0 0.00 0.13 0.00 89 1006.9
20260506093050 53 273 0.0 0.0 0.00 0.13 0.00 88 1007.1
20260506091510 54 273 0.0 2.0 0.00 0.13 0.00 87 1006.9
20260506090037 54 273 0.0 0.0 0.00 0.13 0.00 87 1007.3
20260506084531 54 273 0.0 0.0 0.00 0.13 0.00 86 1007.2
20260506083058 54 273 0.0 1.0 0.00 0.13 0.00 85 1007.4
20260506081519 55 273 0.0 0.0 0.00 0.13 0.00 85 1007.6
20260506073006 55 273 0.0 0.0 0.00 0.13 0.00 86 1008.0
20260506071526 55 273 0.0 0.0 0.00 0.13 0.00 85 1008.0
20260506061552 56 273 0.0 0.0 0.00 0.13 0.00 87 1008.7
20260506060117 56 273 0.0 0.0 0.00 0.13 0.00 87 1008.6
20260506044541 59 273 0.0 0.0 0.00 0.13 0.00 86 1008.8
20260506043007 59 273 0.0 2.0 0.00 0.13 0.00 85 1008.8
20260506041532 60 273 0.0 1.0 0.00 0.13 0.00 85 1008.9
20260506040059 60 273 0.0 3.0 0.00 0.13 0.00 82 1008.4
20260506034600 61 267 1.0 8.0 0.00 0.13 0.13 82 1008.5
20260506033027 61 284 2.0 9.0 0.00 0.13 0.13 86 1008.4
20260506031556 61 318 2.0 8.0 0.00 0.13 0.13 87 1008.3
20260506030109 61 225 0.0 6.0 0.01 0.13 0.13 89 1008.2
20260506024509 62 312 1.0 3.0 0.01 0.13 0.13 90 1008.4
20260506023031 62 340 0.0 0.0 0.01 0.13 0.13 88 1007.8
20260506021559 63 344 0.0 2.0 0.01 0.13 0.13 87 1007.9
20260506020004 63 340 2.0 3.0 0.00 0.12 0.12 85 1007.9
20260506014543 63 260 0.0 0.0 0.00 0.12 0.12 82 1007.7
20260506013053 63 260 0.0 1.0 0.00 0.12 0.12 81 1007.0
20260506011523 64 260 0.0 0.0 0.00 0.12 0.12 80 1007.0
20260506010051 64 259 0.0 0.0 0.00 0.12 0.12 79 1007.0
20260506004555 64 259 0.0 1.0 0.00 0.12 0.12 78 1006.9
20260506003014 64 259 0.0 0.0 0.00 0.12 0.12 78 1006.8
20260506001605 65 259 0.0 1.0 0.00 0.12 0.12 77 1006.3
20260506000106 65 260 0.0 2.0 0.00 0.12 0.12 77 1006.1
20260505234516 65 259 0.0 0.0 0.00 0.12 0.12 76 1006.1
20260505233037 66 260 0.0 0.0 0.00 0.12 0.12 76 1005.8
20260505231505 66 259 0.0 1.0 0.00 0.12 0.12 75 1005.6
20260505230005 66 259 0.0 2.0 0.00 0.12 0.12 75 1005.6
20260505224535 67 296 1.0 4.0 0.00 0.12 0.12 73 1005.6
20260505223057 67 317 2.0 8.0 0.00 0.12 0.12 72 1005.5